Volver al catálogo

STARLINK-31035

ActivoComunicacionesVLEO
NORAD 58532·PAYLOAD·🇺🇸 United States

Lanzado Dec 8, 2023 desde Vandenberg Space Force Base

Loading…

Próximos Pases (próximas 24 horas)

TLE

ActualizadoSource: CelesTrak SupGP

Época: Sep 14, 2026, 22:11 UTC

1 58532C 23192B   26257.92479167  .00035814  00000+0  10581-2 0  2571
2 58532  53.1580 247.4517 0001346  92.4500  49.0491 15.34372652    17

Sigue STARLINK-31035 en tiempo real con AllMySat

Download on the App Store